GFSSW_250_spd_210.txt.gz
Wind_Speed
49 48 46 45 42 40 41 42 46 51 51 52 52 51 54 53 53 52 55 53 51 47 44 33 31 48 77 80 82 83 78 78 74 67 66 66 66 62 56 50 47 45 42 36 34
51 49 47 45 42 47 48 50 51 52 50 51 51 52 56 58 57 59 56 58 59 54 49 41 34 41 64 81 85 84 79 77 78 77 70 62 65 63 57 49 45 40 41 42 38
47 52 50 46 48 51 54 55 51 46 48 50 55 59 61 62 65 62 64 62 62 60 56 49 40 40 50 79 83 84 80 76 78 84 74 66 67 66 63 53 51 44 32 40 36
50 54 51 56 54 56 58 56 51 51 51 57 60 61 65 66 70 68 68 70 68 65 63 58 53 43 47 72 84 85 82 80 80 88 80 74 64 69 62 56 54 46 36 41 38
50 52 54 60 60 60 64 60 54 57 59 59 62 65 68 71 72 73 74 73 72 71 66 67 64 59 51 66 89 88 85 84 83 86 91 76 73 66 71 57 50 47 39 45 46
56 54 52 54 58 62 63 66 60 62 61 66 68 67 72 77 77 79 78 76 77 77 79 75 69 65 52 64 87 90 92 89 88 87 90 86 80 71 67 61 55 49 44 42 47
63 58 58 54 57 62 62 63 65 68 67 71 72 74 78 83 84 84 82 82 83 84 81 82 78 68 57 67 84 98 99 98 92 89 90 87 81 74 73 58 62 53 48 48 46
64 62 59 57 61 62 63 65 66 68 72 75 77 76 79 85 86 88 89 90 85 83 86 85 83 76 66 63 70 103 106 101 91 91 88 87 79 80 78 64 58 59 57 42 50
70 64 60 62 63 60 59 60 64 69 73 77 78 79 84 87 91 93 89 88 87 83 82 83 78 77 78 72 84 99 107 96 96 90 91 86 84 82 78 76 64 64 60 44 48
72 65 65 63 63 58 57 58 63 69 74 76 79 84 88 90 91 93 88 80 79 75 71 76 76 77 80 80 84 85 103 99 93 85 88 83 84 84 84 79 67 66 65 53 49
74 64 64 61 55 55 56 59 65 72 75 78 82 86 90 86 85 83 74 69 68 66 65 77 80 81 77 77 72 79 107 108 99 94 95 85 86 87 79 77 72 62 60 55 50
69 66 54 51 50 52 56 61 67 70 75 78 83 88 86 81 78 68 64 60 58 57 61 70 63 71 81 87 83 90 110 111 105 100 96 89 85 80 86 74 69 66 64 60 52
72 58 43 46 48 51 57 62 63 65 72 79 84 84 81 77 63 56 54 50 46 47 50 52 65 75 85 92 95 94 106 112 106 103 96 95 90 85 86 80 68 70 67 60 56
63 45 39 43 49 53 57 59 62 69 75 81 83 81 77 64 58 54 45 40 37 36 36 49 66 74 85 92 96 96 108 114 112 109 99 95 90 86 81 78 73 64 65 65 61
48 38 44 47 52 55 58 61 68 73 75 78 79 78 70 56 48 46 36 30 27 28 35 50 59 69 78 90 94 89 112 116 112 106 102 94 93 85 84 75 75 71 71 69 63
43 45 48 50 54 58 61 66 71 72 77 76 77 70 60 50 43 35 26 22 19 22 34 43 58 68 75 94 90 95 115 114 115 108 104 97 92 84 80 75 76 78 78 76 56
46 47 50 51 56 61 63 68 71 71 74 72 62 57 49 43 30 26 19 17 18 22 32 41 58 68 84 93 96 99 118 110 111 110 100 97 93 81 81 80 79 81 79 74 66
45 49 55 59 59 61 66 69 71 73 67 59 52 48 40 36 24 19 17 13 16 26 31 42 56 69 83 89 95 96 112 109 107 101 96 99 90 81 81 83 78 75 73 82 78
55 61 62 66 68 68 70 69 64 59 58 48 42 41 35 29 20 15 12 16 24 33 43 48 55 65 77 88 92 101 110 105 100 99 99 93 85 85 83 80 79 79 76 74 75
62 65 65 69 69 67 60 57 55 53 49 42 33 32 30 25 18 11 11 16 31 47 48 52 58 65 77 88 86 98 104 99 101 103 100 94 88 89 89 90 85 82 79 78 75
57 56 61 61 59 53 54 46 42 39 39 31 30 25 25 22 16 12 18 26 36 52 57 55 58 65 80 86 81 97 101 99 102 101 95 94 93 91 91 91 86 81 80 79 78
56 58 54 57 56 51 45 38 31 30 29 25 25 21 20 19 14 15 22 29 40 47 56 58 59 67 75 72 79 98 94 96 97 91 97 94 92 92 89 92 88 83 82 80 79
52 57 59 57 55 53 40 32 28 25 26 24 21 19 16 17 14 17 27 30 37 46 56 62 62 68 75 71 79 96 90 85 87 87 90 94 94 92 90 90 88 88 89 86 82
44 47 52 51 55 46 34 28 25 22 24 24 17 16 15 15 14 17 30 36 41 42 51 63 68 71 78 75 80 93 94 91 88 89 83 89 93 97 96 94 91 93 91 89 85
39 35 41 49 51 45 31 24 23 21 22 22 18 13 13 14 12 17 31 40 45 48 51 59 67 72 76 77 80 91 96 94 92 90 88 87 90 93 95 91 89 89 89 90 94
31 31 34 39 43 46 35 24 22 22 20 20 19 14 10 13 12 17 30 42 48 54 57 60 69 71 76 82 85 92 96 96 96 93 91 89 90 94 95 92 90 85 79 80 78
24 25 30 32 38 41 38 29 22 20 21 18 18 15 11 10 12 11 26 42 51 59 60 63 67 73 77 85 91 91 92 97 99 95 93 90 90 92 96 97 85 83 83 86 83

GFSSW_250_spd_216.txt.gz
Wind_Speed
54 54 55 50 49 45 38 37 40 42 39 44 51 52 52 51 47 45 47 50 51 48 49 42 42 42 35 32 32 34 38 67 82 79 78 77 73 71 64 58 58 56 57 50 45
54 59 56 51 51 49 42 40 38 41 42 41 46 50 52 53 53 50 54 54 54 50 49 45 44 50 43 38 30 30 34 48 76 87 83 79 78 73 68 63 62 57 57 54 50
57 58 55 55 56 51 47 41 43 41 42 45 44 49 53 56 57 56 58 59 58 57 52 53 50 55 52 46 39 35 33 45 63 84 90 85 77 77 73 67 65 64 59 54 54
58 59 56 58 59 52 48 44 44 48 43 48 45 46 55 63 58 59 60 60 61 63 58 57 58 60 59 53 48 41 40 42 53 73 90 89 81 76 77 72 68 62 59 58 55
59 57 59 66 58 54 49 45 47 48 51 47 51 50 50 50 58 62 61 58 59 58 59 59 62 64 62 58 54 46 41 43 48 57 83 92 86 81 76 77 69 62 59 59 61
65 59 68 69 60 55 49 52 54 55 54 49 50 55 55 53 51 57 60 62 63 64 65 65 68 70 67 62 60 56 51 46 48 49 67 89 91 84 81 77 70 64 64 62 59
70 67 70 69 67 59 57 57 63 58 54 51 52 53 59 56 55 56 61 63 62 65 66 67 69 73 70 69 63 64 57 51 48 50 50 80 94 82 81 83 74 71 69 66 63
73 74 71 70 73 63 63 63 65 59 57 56 54 57 60 58 56 58 61 65 68 68 70 70 71 72 73 74 70 68 60 55 52 57 57 71 82 92 84 85 83 68 73 69 68
76 81 76 74 73 70 67 66 63 59 52 49 51 55 58 55 55 56 57 60 65 68 68 70 72 73 73 74 71 67 60 60 60 60 64 62 69 95 94 87 86 74 67 73 66
82 84 80 75 75 73 70 64 59 55 44 40 42 47 48 49 53 51 52 56 61 67 71 74 74 74 75 79 76 79 73 70 65 68 71 65 59 91 101 92 92 85 76 75 67
83 83 82 76 77 73 68 63 54 40 33 33 35 40 40 45 50 52 53 58 65 68 72 74 73 73 85 82 79 79 75 74 69 71 76 66 68 83 99 96 97 90 80 76 70
78 78 81 77 76 72 65 62 47 37 34 27 29 34 38 42 49 48 52 56 64 70 75 73 66 79 79 81 80 82 79 79 77 78 82 73 76 78 101 101 99 97 87 80 74
76 79 80 76 76 70 65 60 49 44 42 43 42 43 46 48 54 58 61 66 69 77 70 67 72 74 76 80 81 79 84 81 93 91 85 81 80 86 93 102 100 100 94 86 78
74 77 75 74 75 67 66 58 51 48 50 52 53 52 54 55 60 66 68 67 71 63 63 62 69 72 74 76 81 80 84 89 98 104 97 90 86 95 92 105 104 98 96 92 82
75 74 74 73 73 66 65 59 55 56 55 55 52 53 53 48 49 54 56 58 59 56 56 58 61 66 68 73 70 74 83 89 95 109 108 97 97 88 91 101 102 97 90 92 86
73 72 73 71 69 66 65 56 51 45 44 41 41 44 45 46 47 50 46 50 49 48 50 51 51 54 55 58 59 66 74 78 91 101 108 99 102 84 90 91 100 99 92 87 90
74 70 68 70 69 69 62 51 43 39 40 40 42 44 46 45 42 43 38 40 39 41 43 42 44 46 46 47 48 56 66 70 78 86 85 103 113 87 92 95 102 102 96 88 91
69 66 66 69 69 67 60 45 41 49 44 41 41 40 39 38 36 35 31 36 37 38 34 37 40 40 39 37 39 46 52 54 64 69 83 98 109 89 91 95 102 100 97 90 89
65 63 65 68 68 68 62 37 49 47 40 37 36 35 32 30 33 33 31 31 34 33 32 31 33 31 31 29 32 38 47 61 68 76 88 96 99 88 91 93 99 101 98 88 85
61 60 64 66 66 64 55 44 49 46 40 38 37 31 28 29 31 29 30 29 27 26 28 26 17 23 23 22 29 41 50 60 66 73 81 91 91 88 93 92 101 103 96 88 84
56 58 62 64 64 63 58 47 47 50 43 39 38 31 27 29 29 25 26 25 20 23 24 18 10 11 15 15 28 34 47 51 56 67 84 90 92 89 84 91 102 101 90 88 86
54 57 59 62 60 59 57 53 47 47 49 44 39 35 27 27 27 24 27 22 17 19 21 9 6 2 6 15 30 39 46 51 56 64 79 94 84 84 84 94 102 98 95 90 84
54 56 58 58 57 59 58 55 53 56 54 45 40 36 29 27 26 20 26 21 16 15 16 3 9 7 7 21 35 45 55 57 60 71 83 85 83 83 85 93 94 97 90 86 85
54 55 55 57 51 54 58 56 57 56 55 47 39 34 31 27 24 18 21 21 15 17 11 7 12 7 17 20 31 44 48 57 65 74 80 78 82 80 84 89 90 93 88 89 84
53 53 52 54 48 52 51 54 57 58 56 47 39 33 31 27 24 18 17 20 16 18 16 16 22 14 14 24 31 39 49 57 61 71 69 78 80 80 89 88 85 89 89 89 86
50 48 50 49 46 47 49 50 55 59 58 48 42 35 29 28 24 18 15 20 17 17 22 24 28 26 27 29 34 42 49 59 64 64 69 77 74 86 92 83 81 84 88 88 85
48 45 48 43 41 42 46 43 48 55 58 47 47 37 25 25 24 18 14 16 18 18 25 27 32 39 40 42 45 49 51 55 59 61 63 68 68 88 89 83 81 82 85 89 86

GFSSW_250_spd_219.txt.gz
Wind_Speed
43 46 48 51 53 47 52 49 43 40 39 40 37 40 44 45 46 47 50 48 52 53 55 48 44 50 47 44 40 35 28 32 41 66 79 83 74 70 72 70 65 57 53 52 48
49 51 55 61 58 52 53 53 44 39 39 42 42 39 44 48 47 48 56 54 54 54 54 51 53 54 52 48 40 37 33 36 40 46 70 81 81 73 71 73 69 66 59 54 52
50 52 56 63 66 61 61 56 49 44 39 40 43 46 44 45 51 50 55 58 55 52 54 55 58 59 54 50 42 41 38 40 39 40 47 72 81 79 74 71 72 71 68 58 56
54 58 64 67 68 65 71 61 52 42 41 43 45 46 50 48 49 52 55 55 58 58 55 56 58 57 57 55 52 46 47 46 44 43 43 50 77 83 78 74 74 73 73 65 60
62 60 66 72 69 70 71 63 53 49 48 48 51 55 57 54 53 55 56 57 65 63 64 66 67 65 62 60 60 52 54 55 52 51 47 49 59 80 82 80 76 74 71 72 66
65 65 68 71 73 71 71 66 54 51 52 55 58 60 60 54 55 57 61 59 59 63 69 67 67 66 62 59 59 56 58 60 57 54 52 49 54 69 85 83 82 79 75 72 67
57 62 67 70 77 71 75 65 58 54 55 56 57 57 54 51 55 56 61 62 61 58 60 67 68 67 66 63 60 61 64 64 60 59 54 53 49 46 79 87 84 84 82 76 72
63 65 70 79 80 74 77 66 62 60 56 54 56 54 48 47 51 58 59 60 61 62 62 64 69 71 69 70 69 68 68 70 66 67 66 61 41 54 71 89 89 86 84 83 78
64 66 71 73 80 78 75 71 68 62 55 55 49 47 44 41 46 51 57 60 61 65 65 66 67 72 74 77 77 74 74 74 75 74 71 63 51 60 66 84 92 91 87 83 85
66 72 78 78 80 88 76 73 67 60 55 54 46 41 38 34 36 42 48 58 62 63 65 68 67 74 82 84 80 77 74 74 73 77 75 66 57 66 70 75 94 94 93 87 84
68 76 74 80 86 82 77 71 64 60 55 53 44 37 35 33 35 37 41 47 48 53 60 64 63 74 78 80 81 82 80 77 78 80 80 70 67 68 71 73 90 95 92 91 85
74 74 83 79 85 80 75 68 63 61 64 57 48 45 39 38 36 35 41 47 54 59 64 65 67 73 76 80 81 82 84 82 85 88 86 79 75 76 78 74 79 99 95 93 92
78 80 85 82 82 77 71 66 62 60 61 54 50 45 48 49 50 46 47 49 53 58 61 65 72 77 79 80 81 84 85 89 86 91 87 85 78 82 83 78 77 97 98 94 94
89 83 76 81 81 73 68 66 62 65 58 48 41 39 44 49 51 53 54 56 60 64 66 70 73 76 78 79 83 85 89 87 88 90 87 94 81 86 91 86 82 85 101 93 92
85 74 78 77 73 72 67 67 62 64 47 45 45 46 46 44 45 49 48 50 53 58 64 67 66 71 69 72 75 77 84 89 91 84 86 89 102 82 95 95 78 80 101 100 96
79 78 73 70 71 70 66 66 64 61 49 49 49 49 44 43 44 47 49 48 51 53 53 56 58 60 63 65 70 74 77 81 77 75 76 89 98 93 97 95 83 83 92 106 100
70 68 67 68 68 68 66 65 65 53 44 40 42 42 38 34 35 36 39 43 40 43 44 44 49 54 57 60 63 65 69 69 64 62 64 91 94 91 101 101 92 85 87 102 105
65 64 62 66 67 66 65 65 65 52 39 43 41 39 35 32 31 32 35 37 36 37 37 38 41 46 51 53 51 48 51 52 54 56 61 67 65 79 100 110 104 89 87 95 104
62 62 62 65 65 65 65 65 65 57 48 46 41 37 34 32 31 33 30 30 30 29 30 33 34 40 44 42 40 34 32 31 34 38 39 51 62 80 102 106 98 95 92 91 100
58 63 64 64 65 64 65 66 65 62 36 45 44 38 37 33 30 32 30 29 28 26 27 28 27 34 33 32 27 23 18 14 19 27 35 45 53 70 98 98 98 98 93 88 96
57 65 64 62 63 63 63 65 66 64 40 48 45 42 39 35 32 32 30 26 27 27 24 25 23 18 15 9 6 8 8 11 17 27 40 47 53 64 88 94 93 97 92 90 94
57 60 59 58 61 63 62 64 66 60 46 48 45 42 41 38 32 31 29 25 26 24 23 26 17 8 5 7 7 9 12 20 27 30 35 45 53 60 83 89 91 94 92 89 91
57 58 56 56 59 61 61 63 65 63 54 45 48 48 42 37 32 29 26 24 24 20 19 19 15 5 4 12 14 20 26 42 40 34 36 41 58 64 75 84 90 93 91 87 87
56 56 54 54 55 59 58 62 64 60 57 48 51 51 43 35 29 27 25 23 24 18 18 7 7 3 7 12 25 29 24 47 49 43 43 48 60 65 75 84 90 92 88 81 84
56 55 51 52 53 56 56 59 61 59 57 53 54 55 44 33 28 26 22 20 21 19 18 13 6 7 5 6 25 33 28 32 36 37 40 48 55 64 73 83 86 86 80 80 80
56 52 50 49 51 54 54 56 57 55 55 53 57 55 44 34 29 26 23 18 19 20 18 18 12 8 13 15 26 29 30 25 33 33 40 33 37 56 63 72 76 78 80 79 77
55 52 48 47 50 52 53 53 54 50 51 55 54 51 48 39 31 27 24 19 17 17 18 20 19 17 16 19 22 24 25 30 29 31 31 33 37 41 55 64 72 76 78 75 74

GFSSW_250_spd_222.txt.gz
Wind_Speed
40 47 49 48 51 53 55 59 62 66 56 44 38 37 37 38 39 39 41 43 43 45 46 44 50 53 52 49 48 46 41 42 43 42 45 63 70 72 70 66 63 59 60 57 52
40 38 45 54 54 56 58 61 61 63 66 48 42 38 35 38 43 43 42 46 49 51 50 49 50 55 52 57 51 50 48 49 46 44 47 44 66 72 72 70 67 63 64 61 54
40 46 46 44 45 52 52 58 62 69 66 51 44 42 38 37 42 46 43 45 50 57 57 54 56 54 59 60 58 54 52 54 49 46 48 46 50 71 74 73 73 73 69 67 56
44 46 50 52 54 57 54 61 64 76 64 52 48 44 43 45 46 50 49 50 50 55 60 61 63 57 62 62 66 58 59 56 54 50 49 48 47 60 76 77 77 77 75 71 67
39 43 51 56 56 55 57 67 71 73 65 56 51 48 44 49 53 53 56 58 57 57 59 64 63 65 63 62 67 63 63 59 55 56 55 50 49 49 69 80 80 80 78 76 75
45 48 56 57 61 60 67 69 77 76 66 60 56 51 44 45 48 51 56 62 64 64 63 64 68 69 68 64 64 64 66 66 61 63 57 55 55 52 50 75 83 81 80 80 79
49 49 56 58 59 63 65 73 80 76 66 59 58 51 44 44 45 45 49 55 59 63 68 71 68 71 72 73 70 70 71 69 65 67 65 65 59 48 62 66 81 87 82 81 80
54 52 59 60 60 64 75 83 80 70 64 61 57 51 50 47 44 44 44 46 52 60 68 73 73 72 74 76 77 78 75 75 75 74 72 72 59 62 63 67 72 88 88 83 80
51 56 60 66 60 72 79 81 78 67 64 61 54 52 55 51 44 40 41 39 44 57 64 71 74 75 75 76 80 82 76 76 77 73 71 70 62 66 63 66 68 81 91 88 83
52 58 63 62 68 82 83 81 71 65 63 58 58 60 60 49 40 39 38 37 38 47 62 67 72 77 79 76 72 75 79 82 81 80 76 74 71 75 68 64 65 72 88 92 88
59 61 68 73 83 85 79 76 65 65 62 59 63 70 59 48 42 39 41 40 39 40 49 65 70 75 78 80 78 78 77 82 85 85 82 78 74 75 74 71 67 71 75 94 93
62 67 78 86 83 78 76 73 65 61 57 60 68 64 57 55 52 46 42 46 45 46 46 51 64 76 78 79 81 84 84 84 87 89 86 88 82 77 78 76 76 71 76 84 100
66 75 83 84 77 75 76 69 66 63 57 58 69 63 55 57 53 50 46 46 51 52 53 59 63 66 71 77 82 84 84 90 87 90 87 91 84 85 83 78 78 77 74 77 97
73 84 81 79 80 73 74 67 65 63 59 57 64 56 59 55 52 47 45 44 42 53 61 63 66 70 75 79 79 81 87 85 87 85 83 83 77 84 88 86 83 78 79 81 84
79 78 80 80 80 71 72 70 67 67 58 56 66 57 58 58 54 44 37 38 42 44 50 57 69 70 72 78 79 84 88 88 90 89 86 81 86 84 92 88 86 86 87 83 80
78 86 78 79 74 69 71 69 68 68 61 56 60 54 57 57 49 41 37 36 38 44 49 50 52 59 60 66 73 77 80 87 87 86 76 94 98 90 99 92 92 88 88 88 86
84 80 76 73 69 67 70 70 68 68 64 58 65 55 54 50 43 39 38 35 35 37 41 44 49 48 52 56 60 63 66 71 74 80 80 98 101 79 88 88 91 91 96 97 91
75 74 74 67 65 70 70 70 68 69 66 65 61 50 48 48 46 39 38 33 31 29 31 34 42 34 41 42 45 51 54 55 57 61 68 80 74 73 78 90 101 99 100 100 95
73 67 73 61 65 69 71 70 70 68 67 65 56 45 43 45 48 42 38 32 27 21 23 26 28 27 26 31 36 36 36 37 42 47 52 57 53 55 71 89 100 102 98 103 96
65 68 72 62 79 69 68 65 68 68 66 66 64 48 48 44 43 41 37 32 24 20 18 18 18 16 14 24 28 26 25 25 28 28 33 33 39 46 64 75 84 95 98 103 98
67 60 62 57 58 64 63 63 65 66 66 66 65 51 47 46 44 37 32 30 22 21 20 12 10 13 19 11 2 5 10 12 14 12 10 18 28 41 53 57 68 83 88 96 96
61 68 66 59 59 61 57 63 63 63 65 66 67 49 47 47 44 34 30 26 23 20 20 7 6 8 9 16 12 10 7 6 6 8 14 21 28 38 40 46 61 74 86 94 97
66 64 60 58 59 59 54 61 60 61 63 64 66 54 46 47 42 32 30 26 23 20 22 9 4 3 11 16 18 17 15 11 19 21 21 23 29 27 32 44 60 71 80 91 98
73 72 61 56 60 59 54 58 57 59 62 62 66 55 46 43 44 32 29 28 25 23 23 13 6 3 5 12 18 24 23 21 22 33 28 29 19 17 21 42 56 70 81 92 94
56 59 62 54 58 58 54 56 54 56 59 62 66 61 44 45 44 38 28 27 27 22 22 17 12 6 10 15 20 31 29 23 21 35 30 28 39 35 38 40 47 65 79 90 90
71 69 67 50 58 58 55 54 53 55 57 60 64 67 52 44 42 43 31 27 25 22 22 21 15 11 12 26 25 28 29 30 30 29 36 35 32 35 30 39 51 65 79 86 87
61 63 60 56 54 57 54 52 51 52 54 57 61 63 58 45 42 42 38 27 24 22 19 20 18 10 11 24 26 26 27 26 26 20 19 26 28 24 27 32 46 56 67 78 83